Home   Weather   Manizales   Past weeks

Flag for Colombia Past Weather in Manizales, Colombia — Yesterday and Last 2 Weeks

Now
70 °F

Passing clouds.


Feels Like: 70 °F
Forecast: 55 / 69 °F
Wind: 7 mph from East

Location: Pereira / Matecana

Current Time: Apr 29, 2017 at 4:46:13 am

Latest Report: Apr 29, 2017 at 1:00 am


Visibility: N/A

Pressure: 30.03 "Hg (23.42 "Hg at 2139m altitude)

Humidity: 83%

Dew Point: 64 °F

Location of ManizalesLocation

Past Weather in Manizales — Graph

°F

Manizales Temperature Yesterday

Maximum temperature yesterday: 82 °F (at 1:00 pm)
Minimum temperature yesterday: 64 °F (at 5:00 am)
Average temperature yesterday: 74 °F

High & Low Weather Summary for the Past Weeks

 TemperatureHumidityPressure
High86 °F (Apr 23, 2:00 pm)100% (Apr 14, 6:00 am)30.17 "Hg (Apr 14, 6:00 am)
Low63 °F (Apr 15, 6:00 am)55% (Apr 22, 2:00 pm)29.89 "Hg (Apr 23, 4:00 pm)
Average72 °F82%30.04 "Hg
* Reported Apr 14 5:00 am — Apr 29 1:00 am, Manizales, Weather by CustomWeather, © 2017

Note: Actual official high and low records may vary slightly from our data, if they occured in-between our weather recording intervals... More about our weather records

Advertising

Manizales Weather History for the Previous 24 Hours

Scroll right to see more
 ConditionsComfort  
Time TempWeatherWind HumidityBarometerVisibility
1:00 am
Sat, Apr 29
70 °FPassing clouds.7 mph83%30.03 "HgN/A
12:00 am72 °FPassing clouds.7 mph88%30.06 "HgN/A
11:00 pm
Fri, Apr 28
72 °FPassing clouds.9 mph83%30.06 "HgN/A
10:00 pm72 °FPassing clouds.5 mph83%30.05 "HgN/A
9:00 pm73 °FPassing clouds.6 mph83%30.02 "HgN/A
8:00 pm73 °FPassing clouds.2 mph83%30.00 "HgN/A
7:00 pm77 °FPassing clouds.2 mph74%29.97 "HgN/A
6:00 pm79 °FPassing clouds.5 mph70%29.94 "HgN/A
5:00 pm81 °FPassing clouds.3 mph66%29.92 "HgN/A
4:00 pm75 °FScattered clouds.3 mph78%29.92 "HgN/A
3:00 pm81 °FScattered showers. Scattered clouds.2 mph70%29.94 "HgN/A
2:00 pm73 °FScattered clouds.5 mph83%29.97 "HgN/A
1:00 pm82 °FScattered clouds.5 mph66%30.00 "HgN/A
12:00 pm81 °FScattered clouds.7 mph70%30.03 "HgN/A
11:00 am77 °FScattered clouds.7 mph74%30.05 "HgN/A
10:00 am77 °FScattered clouds.8 mph74%30.07 "HgN/A
9:00 am75 °FScattered clouds.3 mph69%30.07 "HgN/A
8:00 am72 °FScattered clouds.7 mph78%30.07 "HgN/A
7:00 am66 °FScattered clouds.7 mph88%30.06 "HgN/A
6:00 am64 °FScattered clouds.7 mph94%30.03 "HgN/A
5:00 am64 °FPassing clouds.6 mph88%30.00 "HgN/A
Weather by CustomWeather, © 2017

See weather overviewHow to use our weather pages